Weather History for KEYW - April, 2013

Change the Weather History Date:

Friday, April 12, 2013

  Actual Average Record
Temperature  
Mean Temperature 82 °F 76 °F  
Max Temperature 84 °F 81 °F 90 °F (1957)
Min Temperature 79 °F 71 °F 62 °F (1987)
Degree Days  
Heating Degree Days 0 0  
Month to date heating degree days 0 0  
Since 1 July heating degree days 28 73  
Cooling Degree Days 17 11  
Month to date cooling degree days 152 125  
Year to date cooling degree days 848 735  
Growing Degree Days 32 (Base 50)    
Moisture  
Dew Point 75 °F    
Average Humidity 83    
Maximum Humidity 91    
Minimum Humidity 74    
Precipitation  
Precipitation 0.00 in 0.07 in 6.19 in (1985)
Month to date precipitation 1.43 0.81  
Year to date precipitation 5.17 6.39  
Snow  
Snow 0.00 in - - ()
Month to date snowfall 0.0  
Since 1 July snowfall 0.0  
Snow Depth 0.00 in    
Sea Level Pressure  
Sea Level Pressure 29.93 in    
Wind  
Wind Speed 9 mph (SE)    
Max Wind Speed 20 mph    
Max Gust Speed 25 mph    
Visibility 10 miles    
Events      
T = Trace of Precipitation, MM = Missing Value Source: NWS Daily Summary

Daily Weather History Graph

Daily Weather History Graph

Search for Another Location

Airport or City:

Trip Planner

Search our weather history database for the weather conditions in past years. The results will help you decide how hot, cold, wet, or windy it might be!

Date:

Astronomy

Apr. 12, 2013 Rise Set
Actual Time 7:07 AM EDT 7:47 PM EDT
Civil Twilight 6:44 AM EDT 8:11 PM EDT
Nautical Twilight 6:17 AM EDT 8:38 PM EDT
Astronomical Twilight 5:49 AM EDT 9:06 PM EDT
Moon 8:30 AM EDT (4/12) 10:01 PM EDT (4/12)
Length of Visible Light 13h 26m
Length of Day
12h 40m
Waxing Crescent, 5% of the Moon is Illuminated
Apr 12
Waxing Crescent
Apr 18
First Quarter
Apr 25
Full
May 2
Last Quarter
May 9
New

Hourly Weather History & Observations

Time (EDT) Temp. Heat Index Dew Point Humidity Pressure Visibility Wind Dir Wind Speed Gust Speed Precip Events Conditions
12:53 AM 79.0 °F - 75.0 °F 88% 29.89 in 10.0 mi SSE 19.6 mph 25.3 mph N/A   Clear
1:53 AM 79.0 °F - 75.0 °F 88% 29.88 in 10.0 mi SSE 18.4 mph - N/A   Clear
2:53 AM 79.0 °F - 75.0 °F 88% 29.88 in 10.0 mi SSE 12.7 mph - N/A   Clear
3:53 AM 79.0 °F - 73.9 °F 84% 29.90 in 10.0 mi South 9.2 mph - N/A   Clear
4:53 AM 79.0 °F - 73.0 °F 82% 29.91 in 10.0 mi South 4.6 mph - N/A   Clear
5:53 AM 79.0 °F - 73.9 °F 84% 29.92 in 10.0 mi South 4.6 mph - N/A   Partly Cloudy
6:53 AM 79.0 °F - 73.9 °F 84% 29.93 in 10.0 mi SSE 9.2 mph - N/A   Clear
7:53 AM 79.0 °F - 73.9 °F 84% 29.94 in 10.0 mi SSE 9.2 mph - N/A   Clear
8:53 AM 80.1 °F 84.5 °F 73.9 °F 81% 29.95 in 10.0 mi SSE 11.5 mph - N/A   Clear
9:53 AM 81.0 °F 86.2 °F 73.9 °F 79% 29.95 in 10.0 mi SSE 10.4 mph - N/A   Clear
10:53 AM 81.0 °F 86.7 °F 75.0 °F 82% 29.97 in 10.0 mi SSE 11.5 mph - N/A   Clear
11:53 AM 82.9 °F 90.2 °F 75.0 °F 77% 29.95 in 10.0 mi SSE 12.7 mph - N/A   Clear
12:53 PM 82.9 °F 90.2 °F 75.0 °F 77% 29.95 in 10.0 mi SSE 11.5 mph - N/A   Clear
1:53 PM 84.0 °F 91.9 °F 75.0 °F 74% 29.94 in 10.0 mi SSE 10.4 mph - N/A   Clear
2:53 PM 82.9 °F 90.2 °F 75.0 °F 77% 29.92 in 10.0 mi SSE 9.2 mph - N/A   Clear
3:53 PM 82.9 °F 90.2 °F 75.0 °F 77% 29.90 in 10.0 mi SE 9.2 mph - N/A   Clear
4:53 PM 82.9 °F 90.2 °F 75.0 °F 77% 29.90 in 10.0 mi ESE 9.2 mph - N/A   Clear
5:53 PM 82.9 °F 89.4 °F 73.9 °F 74% 29.90 in 10.0 mi ESE 8.1 mph - N/A   Clear
6:53 PM 82.0 °F 87.9 °F 73.9 °F 76% 29.90 in 10.0 mi ESE 6.9 mph - N/A   Scattered Clouds
7:53 PM 81.0 °F 86.2 °F 73.9 °F 79% 29.93 in 10.0 mi East 6.9 mph - N/A   Overcast
8:53 PM 81.0 °F 86.7 °F 75.0 °F 82% 29.95 in 10.0 mi East 8.1 mph - N/A   Overcast
9:53 PM 80.1 °F 85.4 °F 75.9 °F 87% 29.96 in 10.0 mi SE 6.9 mph - N/A   Clear
10:53 PM 81.0 °F 87.3 °F 75.9 °F 85% 29.97 in 10.0 mi SE 8.1 mph - N/A   Mostly Cloudy
11:53 PM 80.1 °F 85.1 °F 75.0 °F 85% 29.98 in 10.0 mi ESE 5.8 mph - N/A   Scattered Clouds